CW4421 Weather Reports


time (UTC)temp
F
wind
direction
speed
knots
gust
knots
rain 1hr
in
rain 24hr
in
rain mn
in
humidity
%
barometer
mb
20260505084553 56 73 14.8 26.9 0.00 0.00 0.00 48 1002.0
20260505083054 56 65 16.5 30.4 0.00 0.00 0.00 47 1001.9
20260505081539 57 34 20.0 28.7 0.00 0.00 0.00 46 1002.0
20260505080036 57 58 15.6 26.9 0.00 0.00 0.00 46 1001.9
20260505074535 58 52 13.9 24.3 0.00 0.00 0.00 46 1001.5
20260505073032 58 61 13.0 27.8 0.00 0.00 0.00 46 1001.5
20260505071528 59 65 14.8 20.9 0.00 0.00 0.00 47 1001.2
20260505070024 60 80 15.6 23.5 0.00 0.00 0.00 49 1001.3
20260505064532 60 59 12.2 22.6 0.00 0.00 0.00 54 1001.0
20260505063020 61 66 15.6 25.2 0.00 0.00 0.00 54 1000.4
20260505061517 61 63 15.6 24.3 0.00 0.00 0.00 53 1000.0
20260505060016 62 59 13.9 26.1 0.00 0.00 0.00 51 999.6
20260505054520 62 69 14.8 25.2 0.00 0.00 0.00 52 999.5
20260505053009 61 46 14.8 21.7 0.00 0.00 0.00 58 999.4
20260505051508 62 75 9.6 16.5 0.00 0.00 0.00 61 999.4
20260505041504 71 63 3.5 5.2 0.00 0.00 0.00 59 999.0
20260505040002 71 68 3.5 7.0 0.00 0.00 0.00 59 998.8
20260505034502 70 334 0.0 1.7 0.00 0.00 0.00 59 998.5
20260505033001 72 305 0.9 3.5 0.00 0.00 0.00 57 998.4
20260505031606 72 134 0.9 4.3 0.00 0.00 0.00 55 998.3
20260505030124 73 137 2.6 4.3 0.00 0.00 0.00 54 997.9
20260505024612 73 116 2.6 4.3 0.00 0.00 0.00 53 997.9
20260505023059 74 129 2.6 4.3 0.00 0.00 0.00 51 997.5
20260505021558 74 156 2.6 9.6 0.00 0.00 0.00 50 997.4
20260505020108 75 155 3.5 5.2 0.00 0.00 0.00 46 996.9
20260505014557 75 142 1.7 3.5 0.00 0.00 0.00 45 997.4
20260505013056 75 178 1.7 4.3 0.00 0.00 0.00 45 997.2
20260505011601 76 202 3.5 5.2 0.00 0.00 0.00 44 996.9
20260505010110 77 191 3.5 4.3 0.00 0.00 0.00 42 996.6
20260505004620 79 190 2.6 5.2 0.00 0.00 0.00 40 996.3
20260505003059 80 163 2.6 7.0 0.00 0.00 0.00 39 996.3
20260505001553 81 166 3.5 5.2 0.00 0.00 0.00 36 996.3
20260505000104 82 175 4.3 7.8 0.00 0.00 0.00 34 996.4
20260504234553 83 170 4.3 10.4 0.00 0.00 0.00 34 996.8
20260504233052 84 153 7.0 10.4 0.00 0.00 0.00 35 996.8
20260504231619 84 182 7.0 10.4 0.00 0.00 0.00 34 996.8
20260504230050 84 125 1.7 7.0 0.00 0.00 0.00 33 996.5
20260504224549 84 133 2.6 7.0 0.00 0.00 0.00 33 996.8
20260504223049 85 98 1.7 7.0 0.00 0.00 0.00 30 996.8
20260504221625 85 136 3.5 11.3 0.00 0.00 0.00 27 996.9
20260504220046 85 116 2.6 7.0 0.00 0.00 0.00 28 997.2
20260504214546 85 126 2.6 8.7 0.00 0.00 0.00 26 997.4
20260504213046 86 109 6.1 13.0 0.00 0.00 0.00 25 997.4
20260504211546 86 157 3.5 9.6 0.00 0.00 0.00 26 997.5
20260504210048 86 97 4.3 10.4 0.00 0.00 0.00 24 997.8
20260504204542 87 109 4.3 12.2 0.00 0.00 0.00 25 998.0
20260504203044 87 107 5.2 10.4 0.00 0.00 0.00 27 998.2
20260504201544 86 85 5.2 9.6 0.00 0.00 0.00 26 998.5
20260504200040 85 157 4.3 12.2 0.00 0.00 0.00 28 998.6
20260504194546 85 165 4.3 9.6 0.00 0.00 0.00 27 999.0
20260504193044 85 132 4.3 11.3 0.00 0.00 0.00 27 999.0
20260504191604 87 121 6.1 11.3 0.00 0.00 0.00 26 999.0
20260504190038 86 131 5.2 8.7 0.00 0.00 0.00 27 999.1
20260504184542 84 88 3.5 10.4 0.00 0.00 0.00 25 999.1
20260504183031 85 62 2.6 7.8 0.00 0.00 0.00 25 999.5
20260504181533 85 79 7.8 13.0 0.00 0.00 0.00 25 999.7
20260504180034 84 69 5.2 13.0 0.00 0.00 0.00 24 999.8
20260504174527 84 82 6.1 10.4 0.00 0.00 0.00 25 1000.0
20260504173025 83 67 5.2 13.0 0.00 0.00 0.00 24 1000.0
20260504171521 82 80 1.7 7.8 0.00 0.00 0.00 28 1000.1
20260504140103 69 210 6.1 10.4 0.00 0.00 0.00 46 1000.2